When you browse on this site, cookies collect data to enhance your experience and personalize the content and advertising you see.
Visit our Privacy Policy to learn more. By continuing to use the site, you agree to this use of cookies and data.
  • în România
  • Lista ţărilor
  • Pe 7 zile
  • Temperatura apei
  • Hartă satelitară
  • Meteo pe hartă
  • Widget-uri
  • user-avatar
    Intrare

    Meteo pe oră la Askim

    Astăzi, 25 Aprilie, Joi

    Timp Temperatura Precipitaţii Vânt Presiune Umiditate
    00:00 +12°C° 0 mm 4 m/s 748 mmHg 47%
    01:00 +12°C° 0 mm 3 m/s 748 mmHg 47%
    02:00 +12°C° 0 mm 3 m/s 748 mmHg 50%
    03:00 +11°C° 0 mm 3 m/s 748 mmHg 52%
    04:00 +11°C° 0 mm 3 m/s 748 mmHg 55%
    05:00 +11°C° 0 mm 3 m/s 749 mmHg 55%
    06:00 +11°C° 0 mm 3 m/s 749 mmHg 56%
    07:00 +12°C° 0 mm 4 m/s 749 mmHg 52%
    08:00 +12°C° 0 mm 4 m/s 748 mmHg 52%
    09:00 +13°C° 0 mm 3 m/s 748 mmHg 51%
    10:00 +14°C° 0 mm 3 m/s 748 mmHg 51%
    11:00 +16°C° 0 mm 3 m/s 748 mmHg 49%
    12:00 +17°C° 0 mm 3 m/s 748 mmHg 46%
    13:00 +18°C° 0 mm 3 m/s 748 mmHg 44%
    14:00 +18°C° 0 mm 3 m/s 748 mmHg 46%
    15:00 +18°C° 0 mm 2 m/s 747 mmHg 47%
    16:00 +18°C° 0 mm 2 m/s 747 mmHg 49%
    17:00 +18°C° 0.1 mm 2 m/s 747 mmHg 52%
    18:00 +17°C° 0.1 mm 2 m/s 747 mmHg 56%
    19:00 +17°C° 0.1 mm 2 m/s 747 mmHg 59%
    20:00 +16°C° 0.1 mm 3 m/s 748 mmHg 62%
    21:00 +14°C° 0.1 mm 3 m/s 748 mmHg 65%
    22:00 +14°C° 0.1 mm 3 m/s 749 mmHg 68%
    23:00 +13°C° 0 mm 3 m/s 749 mmHg 71%

    Mâine, 26 Aprilie, Vineri

    Timp Temperatura Precipitaţii Vânt Presiune Umiditate
    00:00 +12°C° 0 mm 3 m/s 749 mmHg 74%
    01:00 +12°C° 0 mm 3 m/s 749 mmHg 76%
    02:00 +11°C° 0 mm 3 m/s 749 mmHg 79%
    03:00 +10°C° 0 mm 3 m/s 749 mmHg 82%
    04:00 +10°C° 0 mm 3 m/s 749 mmHg 84%
    05:00 +10°C° 0 mm 3 m/s 749 mmHg 84%
    06:00 +10°C° 0 mm 3 m/s 749 mmHg 83%
    07:00 +10°C° 0 mm 3 m/s 749 mmHg 82%
    08:00 +12°C° 0 mm 2 m/s 749 mmHg 80%
    09:00 +12°C° 0 mm 2 m/s 748 mmHg 78%
    10:00 +13°C° 0 mm 2 m/s 748 mmHg 76%
    11:00 +15°C° 0 mm 2 m/s 748 mmHg 69%
    12:00 +17°C° 0 mm 2 m/s 747 mmHg 63%
    13:00 +19°C° 0 mm 2 m/s 747 mmHg 56%
    14:00 +19°C° 0 mm 2 m/s 747 mmHg 56%
    15:00 +19°C° 0 mm 3 m/s 746 mmHg 56%
    16:00 +19°C° 0 mm 3 m/s 746 mmHg 55%
    17:00 +19°C° 0 mm 2 m/s 745 mmHg 59%
    18:00 +18°C° 0 mm 2 m/s 745 mmHg 62%
    19:00 +17°C° 0 mm 2 m/s 745 mmHg 65%
    20:00 +16°C° 0.3 mm 2 m/s 745 mmHg 71%
    21:00 +15°C° 0.3 mm 2 m/s 745 mmHg 76%
    22:00 +14°C° 0.3 mm 2 m/s 745 mmHg 82%
    23:00 +13°C° 0.6 mm 3 m/s 744 mmHg 84%

    Poimâine, 27 Aprilie, Sâmbătă

    Timp Temperatura Precipitaţii Vânt Presiune Umiditate
    00:00 +13°C° 0.6 mm 3 m/s 744 mmHg 86%
    01:00 +13°C° 0.6 mm 3 m/s 744 mmHg 88%
    02:00 +12°C° 0.3 mm 3 m/s 744 mmHg 89%
    03:00 +12°C° 0.3 mm 3 m/s 744 mmHg 91%
    04:00 +11°C° 0.3 mm 3 m/s 744 mmHg 93%
    05:00 +11°C° 0.5 mm 3 m/s 744 mmHg 92%
    06:00 +11°C° 0.5 mm 3 m/s 744 mmHg 91%
    07:00 +11°C° 0.5 mm 3 m/s 744 mmHg 89%
    08:00 +12°C° 0.2 mm 3 m/s 744 mmHg 86%
    09:00 +13°C° 0.2 mm 3 m/s 744 mmHg 82%
    10:00 +13°C° 0.2 mm 3 m/s 744 mmHg 79%
    11:00 +16°C° 0.1 mm 3 m/s 744 mmHg 73%
    12:00 +17°C° 0.1 mm 3 m/s 744 mmHg 68%
    13:00 +19°C° 0.1 mm 4 m/s 744 mmHg 62%
    14:00 +19°C° 0.7 mm 4 m/s 744 mmHg 60%
    15:00 +20°C° 0.7 mm 4 m/s 744 mmHg 58%
    16:00 +20°C° 0.7 mm 4 m/s 744 mmHg 56%
    17:00 +19°C° 0.6 mm 3 m/s 744 mmHg 60%
    18:00 +18°C° 0.6 mm 3 m/s 744 mmHg 63%
    19:00 +18°C° 0.6 mm 3 m/s 745 mmHg 66%
    20:00 +17°C° 0.1 mm 3 m/s 745 mmHg 66%
    21:00 +15°C° 0.1 mm 4 m/s 746 mmHg 65%
    22:00 +14°C° 0.1 mm 4 m/s 747 mmHg 65%
    23:00 +13°C° 0 mm 4 m/s 747 mmHg 66%

    28 Aprilie, Duminică

    Timp Temperatura Precipitaţii Vânt Presiune Umiditate
    00:00 +13°C° 0 mm 4 m/s 748 mmHg 68%
    01:00 +12°C° 0 mm 4 m/s 749 mmHg 69%
    02:00 +11°C° 0 mm 3 m/s 749 mmHg 68%
    03:00 +10°C° 0 mm 3 m/s 749 mmHg 67%
    04:00 +9°C° 0 mm 3 m/s 750 mmHg 66%
    05:00 +8°C° 0 mm 4 m/s 750 mmHg 65%
    06:00 +10°C° 0 mm 4 m/s 751 mmHg 64%
    07:00 +10°C° 0 mm 4 m/s 751 mmHg 63%
    08:00 +12°C° 0 mm 4 m/s 751 mmHg 58%
    09:00 +14°C° 0 mm 4 m/s 752 mmHg 52%
    10:00 +16°C° 0 mm 5 m/s 752 mmHg 47%
    11:00 +17°C° 0 mm 5 m/s 752 mmHg 44%
    12:00 +19°C° 0 mm 5 m/s 753 mmHg 40%
    13:00 +20°C° 0 mm 5 m/s 753 mmHg 36%
    14:00 +20°C° 0 mm 4 m/s 753 mmHg 36%
    15:00 +19°C° 0 mm 4 m/s 753 mmHg 37%
    16:00 +19°C° 0 mm 4 m/s 754 mmHg 37%
    17:00 +18°C° 0 mm 3 m/s 754 mmHg 41%
    18:00 +17°C° 0 mm 2 m/s 754 mmHg 45%
    19:00 +16°C° 0 mm 2 m/s 755 mmHg 49%
    20:00 +14°C° 0 mm 2 m/s 756 mmHg 50%
    21:00 +12°C° 0 mm 2 m/s 756 mmHg 52%
    22:00 +10°C° 0 mm 2 m/s 757 mmHg 54%
    23:00 +9°C° 0 mm 2 m/s 757 mmHg 52%

    29 Aprilie, Luni

    Timp Temperatura Precipitaţii Vânt Presiune Umiditate
    00:00 +7°C° 0 mm 2 m/s 758 mmHg 50%
    01:00 +7°C° 0 mm 1 m/s 758 mmHg 49%
    02:00 +7°C° 0 mm 1 m/s 758 mmHg 50%
    03:00 +6°C° 0 mm 1 m/s 758 mmHg 50%
    04:00 +5°C° 0 mm 1 m/s 759 mmHg 51%
    05:00 +6°C° 0 mm 1 m/s 759 mmHg 47%
    06:00 +7°C° 0 mm 1 m/s 759 mmHg 44%
    07:00 +8°C° 0 mm 1 m/s 758 mmHg 40%
    08:00 +10°C° 0 mm 1 m/s 758 mmHg 37%
    09:00 +13°C° 0 mm 1 m/s 758 mmHg 33%
    10:00 +15°C° 0 mm 1 m/s 758 mmHg 30%
    11:00 +15°C° 0 mm 0 m/s 757 mmHg 30%
    12:00 +17°C° 0 mm 0 m/s 757 mmHg 30%
    13:00 +18°C° 0 mm 0 m/s 757 mmHg 30%
    14:00 +18°C° 0 mm 0 m/s 756 mmHg 31%
    15:00 +18°C° 0 mm 0 m/s 756 mmHg 33%
    16:00 +21°C° 0 mm 1 m/s 756 mmHg 34%
    17:00 +19°C° 0 mm 1 m/s 755 mmHg 38%
    18:00 +18°C° 0 mm 1 m/s 755 mmHg 43%
    19:00 +16°C° 0 mm 1 m/s 755 mmHg 48%
    20:00 +15°C° 0 mm 1 m/s 755 mmHg 51%
    21:00 +14°C° 0 mm 1 m/s 755 mmHg 54%
    22:00 +12°C° 0 mm 1 m/s 756 mmHg 57%
    23:00 +12°C° 0 mm 1 m/s 756 mmHg 57%

    30 Aprilie, Marţi

    Timp Temperatura Precipitaţii Vânt Presiune Umiditate
    00:00 +12°C° 0 mm 1 m/s 756 mmHg 56%
    01:00 +12°C° 0 mm 1 m/s 756 mmHg 56%
    02:00 +11°C° 0 mm 1 m/s 756 mmHg 60%
    03:00 +11°C° 0 mm 1 m/s 756 mmHg 64%
    04:00 +10°C° 0 mm 1 m/s 756 mmHg 69%
    05:00 +11°C° 0 mm 1 m/s 756 mmHg 67%
    06:00 +12°C° 0 mm 1 m/s 756 mmHg 65%
    07:00 +14°C° 0 mm 2 m/s 756 mmHg 64%
    08:00 +16°C° 0 mm 1 m/s 756 mmHg 57%
    09:00 +19°C° 0 mm 1 m/s 756 mmHg 50%
    10:00 +21°C° 0 mm 1 m/s 755 mmHg 43%
    11:00 +22°C° 0 mm 1 m/s 755 mmHg 39%
    12:00 +23°C° 0 mm 1 m/s 755 mmHg 35%
    13:00 +24°C° 0 mm 1 m/s 755 mmHg 31%
    14:00 +24°C° 0 mm 1 m/s 754 mmHg 31%
    15:00 +23°C° 0 mm 1 m/s 754 mmHg 32%
    16:00 +23°C° 0 mm 1 m/s 754 mmHg 32%
    17:00 +22°C° 0 mm 1 m/s 753 mmHg 38%
    18:00 +20°C° 0 mm 1 m/s 753 mmHg 44%
    19:00 +18°C° 0 mm 2 m/s 753 mmHg 50%
    20:00 +16°C° 0 mm 2 m/s 753 mmHg 56%
    21:00 +14°C° 0 mm 1 m/s 752 mmHg 63%
    22:00 +13°C° 0 mm 1 m/s 752 mmHg 69%
    23:00 +12°C° 0 mm 1 m/s 752 mmHg 71%
    Arată mai mult